User: anonymous   Login
Location: Gro� Glienicke
(52.4675°N, 13.1079°E)
Time: 13:31:37
(UTC+00:00)
Language:

Cosmos 1408 - Orbit

View from above orbital plane
View from above orbital plane
View from above satellite
View from above satellite

Ground track
Ground track

The orbit data is extracted from the following two-line orbital elements,

1 13552U 82092A   20263.07147635  .00000762  00000-0  26452-4 0  9991
2 13552  82.5702 184.9045 0018310 157.8747 202.3287 15.27952423 78677
Epoch (UTC): 19 September 2020 01:42:55
Eccentricity: 0.0018310
inclination: 82.5702°
perigee height: 469 km
apogee height: 494 km
right ascension of ascending node: 184.9045°
argument of perigee: 157.8747°
revolutions per day: 15.27952423
mean anomaly at epoch: 202.3287°
orbit number at epoch: 7867

The dashed part of the orbit path shows where the satellite is in the earth's shadow,  

DLR